Tracking 22124 objects as of 23-Jan-2021
HD Live streaming from Space Station
objects crossing your sky now

SL-14 DEB

Track SL-14 DEB now!
10-day predictions


NORAD ID: 19175
Int'l Code: 1978-100S
Perigee: 1,059.3 km
Apogee: 1,510.0 km
Inclination: 82.4 °
Period: 111.1 minutes
Semi major axis: 7655 km
RCS: 0.0795 m2 (small)
Launch date: October 26, 1978
Source: Commonwealth of Independent States (former USSR) (CIS)
Launch site: PLESETSK MISSILE AND SPACE COMPLEX (PKMTR)

Note: This is SATELLITE DEBRIS
aabbcc
Your satellite tracking list
Your tracking list is empty




NASA's NSSDC Master Catalog

Two Line Element Set (TLE):
1 19175U 78100S   21022.94193098  .00004481  00000-0  12890-1 0  9997
2 19175  82.4328 186.5030 0294403 316.5251 201.2709 12.96073973502162
Source of the keplerian elements: AFSPC